Location: Byhalia Creek
(34.8270°N, 89.8040°W)
Time: 17:24:52
(UTC+00:00)

Helios 1A Rocket - Pass Details

Date: 22 April 2026
Orbit: 406 x 416 km, 98.3° (Epoch: 9 May)

Event Time Altitude Azimuth Distance (km) Brightness Sun altitude
Rises 00:58:56 0° 34° (NE) 2,364 5.9 -5.2°
Reaches altitude 10° 01:01:35 10° 59° (ENE) 1,492 4.7 -5.7°
Maximum altitude 01:03:30 15° 96° (E) 1,221 4.0 -6.1°
Drops below altitude 10° 01:05:23 10° 133° (SE) 1,479 4.4 -6.5°
Enters shadow 01:07:56 - 158° (SSE) 2,311 5.6 -7.0°
